Soldotna, AK

8:48 PM AKDT on April 22, 2018 (GMT -0800)
Soldotna

Weather History for PASX - October, 2012

Change the Weather History Date:

Wednesday, October 3, 2012

  Actual Average Record
Temperature  
Mean Temperature 42 °F -  
Max Temperature 51 °F 47 °F 60 °F (1954)
Min Temperature 33 °F 32 °F 13 °F (1974)
Degree Days  
Heating Degree Days 23    
Moisture  
Dew Point 38 °F    
Average Humidity 84    
Maximum Humidity 93    
Minimum Humidity 58    
Precipitation  
Precipitation 0.00 in - - ()
Sea Level Pressure  
Sea Level Pressure 30.13 in    
Wind  
Wind Speed 3 mph (ENE)    
Max Wind Speed 12 mph    
Max Gust Speed -    
Visibility 10 miles    
Events      
Averages and records for this station are not official NWS values.
T = Trace of Precipitation, MM = Missing Value Source: NWS Daily Summary

Daily Weather History Graph

Daily Weather History Graph

Search for Another Location

Airport or City:

Astronomy

Oct. 03, 2012 Rise Set
Actual Time 8:16 AM AKDT 7:27 PM AKDT
Civil Twilight 7:34 AM AKDT 8:09 PM AKDT
Nautical Twilight 6:45 AM AKDT 8:58 PM AKDT
Astronomical Twilight 5:53 AM AKDT 9:50 PM AKDT
Moon 8:15 PM AKDT (10/3) 12:59 PM AKDT (10/3)
Length of Visible Light 12h 35m
Length of Day
11h 11m
Waning Gibbous, 88% of the Moon is Illuminated
Oct 3
Waning Gibbous
Oct 7
Last Quarter
Oct 15
New
Oct 21
First Quarter
Oct 29
Full

Hourly Weather History & Observations

Time (AKDT) Temp. Windchill Dew Point Humidity Pressure Visibility Wind Dir Wind Speed Gust Speed Precip Events Conditions
12:16 AM 42.8 °F 41.1 °F 35.6 °F 76% 30.20 in 10.0 mi SSE 3.5 mph - N/A   Overcast
12:36 AM 42.8 °F 41.1 °F 35.6 °F 76% 30.20 in 10.0 mi ESE 3.5 mph - N/A   Overcast
12:56 AM 42.8 °F - 35.6 °F 76% 30.21 in 10.0 mi Calm Calm - N/A   Overcast
1:16 AM 39.2 °F - 35.6 °F 87% 30.20 in 10.0 mi Calm Calm - N/A   Overcast
1:36 AM 41.0 °F - 35.6 °F 81% 30.21 in 10.0 mi Calm Calm - N/A   Overcast
1:56 AM 39.2 °F - 35.6 °F 87% 30.21 in 9.0 mi Calm Calm - N/A   Overcast
2:16 AM 42.8 °F - 35.6 °F 76% 30.21 in 10.0 mi Calm Calm - N/A   Overcast
2:36 AM 37.4 °F - 33.8 °F 87% 30.21 in 10.0 mi Calm Calm - N/A   Mostly Cloudy
2:56 AM 37.4 °F - 33.8 °F 87% 30.21 in 10.0 mi Calm Calm - N/A   Clear
3:16 AM 35.6 °F - 32.0 °F 87% 30.20 in 10.0 mi Calm Calm - N/A   Scattered Clouds
3:36 AM 35.6 °F 32.8 °F 33.8 °F 93% 30.21 in 10.0 mi East 3.5 mph - N/A   Partly Cloudy
3:56 AM 35.6 °F - 33.8 °F 93% 30.21 in - Calm Calm - N/A   Mostly Cloudy
4:16 AM 35.6 °F - 33.8 °F 93% 30.21 in - Calm Calm - N/A   Overcast
4:36 AM 35.6 °F - 32.0 °F 87% 30.21 in 10.0 mi Calm Calm - N/A   Overcast
4:56 AM 35.6 °F - 32.0 °F 87% 30.22 in 10.0 mi Calm Calm - N/A   Scattered Clouds
5:16 AM 35.6 °F - 33.8 °F 93% 30.21 in 10.0 mi Calm Calm - N/A   Mostly Cloudy
5:36 AM 37.4 °F - 33.8 °F 87% 30.21 in 10.0 mi Calm Calm - N/A   Overcast
5:56 AM 35.6 °F - 33.8 °F 93% 30.22 in 10.0 mi Calm Calm - N/A   Overcast
6:16 AM 37.4 °F 34.9 °F 33.8 °F 87% 30.20 in 10.0 mi East 3.5 mph - N/A   Mostly Cloudy
6:36 AM 37.4 °F - 33.8 °F 87% 30.22 in 10.0 mi Calm Calm - N/A   Partly Cloudy
6:56 AM 37.4 °F 32.8 °F 33.8 °F 87% 30.21 in 10.0 mi East 5.8 mph - N/A   Mostly Cloudy
7:16 AM 37.4 °F 32.8 °F 33.8 °F 87% 30.20 in 10.0 mi East 5.8 mph - N/A   Overcast
7:36 AM 37.4 °F - 33.8 °F 87% 30.20 in 10.0 mi Calm Calm - N/A   Scattered Clouds
7:56 AM 37.4 °F 34.9 °F 32.0 °F 81% 30.20 in 10.0 mi East 3.5 mph - N/A   Clear
8:16 AM 35.6 °F - 33.8 °F 93% 30.20 in 10.0 mi Calm Calm - N/A   Clear
8:36 AM 33.8 °F - 30.2 °F 87% 30.20 in - Calm Calm - N/A   Unknown
8:56 AM 35.6 °F - 32.0 °F 87% 30.20 in - Calm Calm - N/A   Unknown
9:16 AM 33.8 °F - 32.0 °F 93% 30.20 in - Calm Calm - N/A   Mostly Cloudy
9:36 AM 35.6 °F - 32.0 °F 87% 30.20 in - Calm Calm - N/A   Overcast
9:56 AM 37.4 °F - 33.8 °F 87% 30.20 in - Calm Calm - N/A   Overcast
10:16 AM 39.2 °F 37.0 °F 35.6 °F 87% 30.19 in 10.0 mi East 3.5 mph - N/A   Overcast
10:36 AM 39.2 °F - 35.6 °F 87% 30.19 in 10.0 mi Calm Calm - N/A   Mostly Cloudy
10:56 AM 39.2 °F - 35.6 °F 87% 30.18 in 10.0 mi Calm Calm - N/A   Mostly Cloudy
11:16 AM 41.0 °F - 35.6 °F 81% 30.18 in 10.0 mi Calm Calm - N/A   Overcast
11:36 AM 42.8 °F - 37.4 °F 81% 30.18 in 10.0 mi Calm Calm - N/A   Mostly Cloudy
11:56 AM 44.6 °F - 37.4 °F 76% 30.18 in 10.0 mi Calm Calm - N/A   Partly Cloudy
12:16 PM 48.2 °F - 37.4 °F 66% 30.17 in 10.0 mi Calm Calm - N/A   Partly Cloudy
12:36 PM 51.8 °F - 37.4 °F 58% 30.16 in 10.0 mi ENE 6.9 mph - N/A   Partly Cloudy
12:56 PM 51.8 °F - 37.4 °F 58% 30.15 in 10.0 mi East 8.1 mph - N/A   Clear
1:16 PM 51.8 °F - 37.4 °F 58% 30.14 in 10.0 mi East 11.5 mph - N/A   Partly Cloudy
1:36 PM 51.8 °F - 37.4 °F 58% 30.13 in 10.0 mi East 8.1 mph - N/A   Mostly Cloudy
1:56 PM 51.8 °F - 37.4 °F 58% 30.12 in 10.0 mi East 11.5 mph - N/A   Overcast
2:16 PM 50.0 °F - 37.4 °F 62% 30.12 in 10.0 mi East 8.1 mph - N/A   Overcast
2:36 PM 48.2 °F - 39.2 °F 71% 30.12 in 9.0 mi East 8.1 mph - N/A   Overcast
2:56 PM 48.2 °F - 39.2 °F 71% 30.11 in 10.0 mi East 8.1 mph - N/A   Overcast
3:16 PM 48.2 °F - 42.8 °F 82% 30.11 in 10.0 mi East 9.2 mph - N/A   Overcast
3:36 PM 48.2 °F - 41.0 °F 76% 30.11 in 10.0 mi East 11.5 mph - N/A   Overcast
3:56 PM 46.4 °F 41.9 °F 41.0 °F 81% 30.10 in 10.0 mi East 9.2 mph - N/A   Overcast
4:16 PM 46.4 °F 42.4 °F 41.0 °F 81% 30.09 in 10.0 mi East 8.1 mph - N/A   Overcast
4:36 PM 46.4 °F 42.9 °F 42.8 °F 87% 30.08 in 10.0 mi ENE 6.9 mph - N/A   Overcast
4:56 PM 46.4 °F 42.4 °F 42.8 °F 87% 30.07 in 9.0 mi ENE 8.1 mph - N/A   Overcast
5:16 PM 46.4 °F 42.4 °F 42.8 °F 87% 30.06 in 10.0 mi NE 8.1 mph - N/A   Overcast
5:36 PM 46.4 °F - 42.8 °F 87% 30.05 in 10.0 mi Calm Calm - N/A   Overcast
5:56 PM 46.4 °F 45.2 °F 42.8 °F 87% 30.05 in 10.0 mi North 3.5 mph - N/A   Overcast
6:16 PM 46.4 °F - 42.8 °F 87% 30.04 in 10.0 mi Calm Calm - N/A   Overcast
6:36 PM 46.4 °F 44.3 °F 42.8 °F 87% 30.03 in 9.0 mi NNE 4.6 mph - N/A   Mostly Cloudy
6:56 PM 46.4 °F - 42.8 °F 87% 30.03 in 10.0 mi Calm Calm - N/A   Mostly Cloudy
7:16 PM 46.4 °F 44.3 °F 42.8 °F 87% 30.02 in 10.0 mi NE 4.6 mph - N/A   Mostly Cloudy
7:36 PM 46.4 °F 45.2 °F 42.8 °F 87% 30.02 in 10.0 mi ENE 3.5 mph - N/A   Partly Cloudy
7:56 PM 46.4 °F 43.5 °F 42.8 °F 87% 30.01 in 10.0 mi NE 5.8 mph - N/A   Scattered Clouds
8:16 PM 44.6 °F 41.4 °F 42.8 °F 93% 30.00 in 10.0 mi NE 5.8 mph - N/A   Partly Cloudy
8:36 PM 44.6 °F 42.2 °F 42.8 °F 93% 30.00 in 10.0 mi NE 4.6 mph - N/A   Scattered Clouds
8:56 PM 44.6 °F 42.2 °F 42.8 °F 93% 30.00 in 10.0 mi NNE 4.6 mph - N/A   Overcast
9:16 PM 44.6 °F 42.2 °F 42.8 °F 93% 29.99 in 10.0 mi NE 4.6 mph - N/A   Overcast
9:36 PM 44.6 °F 40.7 °F 42.8 °F 93% 30.00 in 10.0 mi North 6.9 mph - N/A   Overcast
9:56 PM 44.6 °F 42.2 °F 42.8 °F 93% 29.99 in 10.0 mi North 4.6 mph - N/A   Overcast
10:16 PM 44.6 °F - 41.0 °F 87% 29.99 in 10.0 mi Calm Calm - N/A   Mostly Cloudy
10:36 PM 44.6 °F 41.4 °F 41.0 °F 87% 29.99 in 10.0 mi NW 5.8 mph - N/A   Partly Cloudy
10:56 PM 42.8 °F 40.1 °F 41.0 °F 93% 29.99 in 10.0 mi WNW 4.6 mph - N/A   Scattered Clouds
11:16 PM 42.8 °F 40.1 °F 41.0 °F 93% 29.99 in 10.0 mi WNW 4.6 mph - N/A   Overcast
11:36 PM 44.6 °F - 42.8 °F 93% 29.98 in 10.0 mi Calm Calm - N/A   Overcast
11:56 PM 44.6 °F 43.1 °F 42.8 °F 93% 29.97 in 10.0 mi North 3.5 mph - N/A   Overcast